TimeCDT,TemperatureF,Dew PointF,Humidity,Sea Level PressureIn,VisibilityMPH,Wind Direction,Wind SpeedMPH,Gust SpeedMPH,PrecipitationIn,Events,Conditions,WindDirDegrees,DateUTC
12:53 AM,54.0,53.1,97,30.00,8.0,Calm,Calm,-,N/A,,Clear,0,2013-05-08 05:53:00
1:53 AM,54.0,53.1,97,29.99,5.0,West,4.6,-,N/A,,Clear,260,2013-05-08 06:53:00
2:31 AM,53.6,53.6,100,29.99,1.5,Calm,Calm,-,N/A,,Clear,0,2013-05-08 07:31:00
2:39 AM,53.6,53.6,100,29.99,0.5,West,3.5,-,N/A,Fog,Fog,270,2013-05-08 07:39:00
2:53 AM,55.0,54.0,96,29.99,0.5,West,3.5,-,N/A,Fog,Fog,270,2013-05-08 07:53:00
3:28 AM,53.6,51.8,94,29.99,2.0,WSW,3.5,-,N/A,,Clear,240,2013-05-08 08:28:00
3:41 AM,51.8,51.8,100,30.00,3.0,Calm,Calm,-,N/A,,Clear,0,2013-05-08 08:41:00
3:48 AM,53.6,51.8,94,30.00,1.8,Calm,Calm,-,N/A,,Clear,0,2013-05-08 08:48:00
3:53 AM,53.1,52.0,96,30.00,0.8,Calm,Calm,-,N/A,,Clear,0,2013-05-08 08:53:00
4:16 AM,53.6,51.8,94,30.00,0.2,Calm,Calm,-,N/A,Fog,Fog,0,2013-05-08 09:16:00
4:53 AM,51.1,50.0,96,30.00,0.2,Calm,Calm,-,N/A,Fog,Fog,0,2013-05-08 09:53:00
5:03 AM,50.0,50.0,100,30.01,0.2,Calm,Calm,-,N/A,Fog,Fog,0,2013-05-08 10:03:00
5:11 AM,51.8,50.0,94,30.01,0.2,Calm,Calm,-,N/A,Fog,Fog,0,2013-05-08 10:11:00
5:40 AM,50.0,50.0,100,30.01,0.2,Calm,Calm,-,N/A,Fog,Fog,0,2013-05-08 10:40:00
5:53 AM,50.0,48.9,96,30.01,0.2,Calm,Calm,-,N/A,Fog,Fog,0,2013-05-08 10:53:00
6:40 AM,51.8,51.8,100,30.03,1.0,Calm,Calm,-,N/A,,Clear,0,2013-05-08 11:40:00
6:43 AM,51.8,51.8,100,30.03,3.0,Calm,Calm,-,N/A,,Clear,0,2013-05-08 11:43:00
6:53 AM,53.1,53.1,100,30.03,4.0,Calm,Calm,-,N/A,,Clear,0,2013-05-08 11:53:00
7:53 AM,60.1,57.9,93,30.04,10.0,Calm,Calm,-,N/A,,Clear,0,2013-05-08 12:53:00
8:53 AM,66.0,59.0,78,30.05,10.0,Calm,Calm,-,N/A,,Clear,0,2013-05-08 13:53:00
9:53 AM,70.0,61.0,73,30.05,10.0,Calm,Calm,-,N/A,,Clear,0,2013-05-08 14:53:00
10:53 AM,73.9,60.1,62,30.05,10.0,Calm,Calm,-,N/A,,Clear,0,2013-05-08 15:53:00
11:53 AM,77.0,57.0,50,30.05,10.0,Variable,3.5,-,N/A,,Clear,0,2013-05-08 16:53:00
12:53 PM,78.1,51.1,39,30.03,10.0,WSW,3.5,-,N/A,,Clear,250,2013-05-08 17:53:00
1:53 PM,79.0,53.1,40,30.02,2.0,Calm,Calm,-,N/A,,Haze,0,2013-05-08 18:53:00
2:01 PM,80.6,55.4,42,30.03,10.0,Calm,Calm,-,N/A,,Clear,0,2013-05-08 19:01:00
2:53 PM,79.0,54.0,42,30.01,10.0,Calm,Calm,-,N/A,,Clear,0,2013-05-08 19:53:00
3:53 PM,80.1,53.1,39,30.00,10.0,Variable,6.9,-,N/A,,Scattered Clouds,0,2013-05-08 20:53:00
4:53 PM,78.1,55.0,45,29.99,10.0,South,3.5,-,N/A,,Clear,190,2013-05-08 21:53:00
5:53 PM,75.9,57.0,52,29.99,10.0,SSW,5.8,-,N/A,,Clear,200,2013-05-08 22:53:00
6:53 PM,73.9,60.1,62,29.98,10.0,SSW,4.6,-,N/A,,Partly Cloudy,210,2013-05-08 23:53:00
7:53 PM,70.0,63.0,78,29.99,10.0,Calm,Calm,-,N/A,,Mostly Cloudy,0,2013-05-09 00:53:00
8:53 PM,69.1,63.0,81,30.00,10.0,WSW,3.5,-,N/A,,Overcast,240,2013-05-09 01:53:00
9:53 PM,66.9,61.0,81,30.01,10.0,Calm,Calm,-,N/A,,Partly Cloudy,0,2013-05-09 02:53:00
10:53 PM,64.0,61.0,90,29.99,10.0,SSE,4.6,-,N/A,,Clear,150,2013-05-09 03:53:00
11:53 PM,62.1,59.0,90,30.00,10.0,South,3.5,-,N/A,,Partly Cloudy,180,2013-05-09 04:53:00